Location: Godiavel Galaoual
(15.2485°N, 12.6604°W)
Time: 02:08:02
(UTC+00:00)

Vanguard 1 - Visible Passes

Search period start: 13 June 2021 00:00
Search period end: 23 June 2021 00:00
Orbit: 650 x 3832 km, 34.2° (Epoch: 12 June)

Date Brightness Start Highest point End Pass type
(mag) Time Alt. Az. Time Alt. Az. Time Alt. Az.
13 Jun 12.7 00:00:53 10° W 00:21:15 49° NNW 00:33:31 10° NE visible
13 Jun 12.7 02:35:42 10° WNW 02:47:06 27° N 02:54:15 10° NE visible
13 Jun 11.8 05:03:58 10° NW 05:11:20 31° NNE 05:16:08 10° ENE visible
13 Jun 13.0 19:28:00 10° SSW 19:49:06 49° SE 20:08:57 10° ENE visible
13 Jun 12.6 21:52:19 10° WSW 22:16:22 82° NW 22:33:19 10° NE visible
14 Jun 12.8 00:24:08 10° W 00:43:05 42° NNW 00:54:33 10° NE visible
14 Jun 12.6 02:58:28 10° NW 03:09:04 26° N 03:15:44 10° NE visible
14 Jun 11.2 05:25:09 10° NW 05:32:45 42° NNE 05:37:36 10° E visible
14 Jun 12.9 19:48:31 10° SW 20:10:40 60° SE 20:30:57 10° ENE visible
14 Jun 12.7 22:14:19 10° WSW 22:38:02 70° NNW 22:54:24 10° NE visible
15 Jun 12.9 00:47:35 10° W 01:05:03 37° NNW 01:15:40 10° NE visible
15 Jun 12.5 03:20:47 10° NW 03:31:01 28° N 03:37:21 10° ENE visible
15 Jun 10.4 05:46:20 10° NW 05:53:59 63° NNE 05:58:49 10° ESE visible
15 Jun 12.8 20:09:20 10° SW 20:32:13 73° SE 20:52:36 10° ENE visible
15 Jun 12.9 22:36:43 10° WSW 22:59:50 60° NNW 23:15:28 10° NE visible
16 Jun 12.9 01:11:04 10° WNW 01:27:09 34° NNW 01:36:58 10° NE visible
16 Jun 12.2 03:42:41 10° NW 03:52:51 32° N 03:58:59 10° ENE visible
16 Jun 12.8 20:30:29 10° SW 20:53:50 86° SE 21:14:01 10° ENE visible
16 Jun 13.0 22:59:31 10° W 23:21:45 51° NNW 23:36:35 10° NE visible
17 Jun 12.9 01:34:21 10° WNW 01:49:20 32° N 01:58:25 10° NE visible
17 Jun 11.8 04:04:18 10° NW 04:14:33 39° NNE 04:20:31 10° E visible
17 Jun 12.9 20:51:59 10° WSW 21:15:32 81° NNW 21:35:19 10° NE visible
17 Jun 13.1 23:22:39 10° W 23:43:52 45° NNW 23:57:47 10° NE visible
18 Jun 12.8 01:57:17 10° WNW 02:11:30 32° N 02:20:01 10° ENE visible
18 Jun 11.2 04:25:45 10° NW 04:36:03 52° NNE 04:41:53 10° E visible
18 Jun 13.0 21:13:51 10° WSW 21:37:22 70° NNW 21:56:33 10° NE visible
18 Jun 13.1 23:46:01 10° W 00:06:08 40° NNW 00:19:07 10° NE visible
19 Jun 12.6 02:19:48 10° NW 02:33:36 35° N 02:41:40 10° ENE visible
19 Jun 10.6 04:47:10 10° NW 04:57:19 73° NNE 05:03:00 10° ESE visible
19 Jun 13.0 19:10:02 10° SW 19:31:01 74° SE 19:53:33 10° ENE visible
19 Jun 13.1 21:36:06 10° WSW 21:59:23 60° NNW 22:17:47 10° NE visible
20 Jun 13.1 00:09:25 10° WNW 00:28:31 38° N 00:40:35 10° NE visible
20 Jun 12.2 02:41:56 10° NW 02:55:35 39° NNE 03:03:17 10° E visible
20 Jun 10.2 05:08:40 10° WNW 05:18:20 77° SW 05:23:49 10° SE visible
20 Jun 13.0 19:31:06 10° SW 19:52:36 87° SE 20:15:07 10° ENE visible
20 Jun 13.3 21:58:42 10° W 22:21:35 53° NNW 22:39:05 10° NE visible
21 Jun 13.1 00:32:41 10° WNW 00:50:56 37° N 01:02:14 10° ENE visible
21 Jun 11.8 03:03:47 10° NW 03:17:22 48° NNE 03:24:48 10° E visible
21 Jun 10.4 05:30:23 10° WNW 05:39:05 49° SW 05:44:20 10° SSE visible
21 Jun 13.1 19:52:29 10° WSW 20:14:21 80° NNW 20:36:33 10° NE visible
21 Jun 13.3 22:21:39 10° W 22:43:58 47° NNW 23:00:29 10° NE visible
22 Jun 12.9 00:55:40 10° WNW 01:13:20 38° N 01:23:57 10° ENE visible
22 Jun 11.3 03:25:28 10° NW 03:38:57 61° NNE 03:46:05 10° ESE visible
22 Jun 10.9 05:52:29 10° WNW 05:59:38 29° SW 06:04:23 10° SSE visible
22 Jun 13.2 20:14:12 10° WSW 20:36:18 70° NNW 20:57:57 10° NE visible
22 Jun 13.4 22:44:48 10° W 23:06:31 43° NNW 23:22:03 10° NE visible
